Terminal Aerodrome Forecast
Issued by NWS

Home | Current Version | Previous Version | Text Only | Print | Product List | Glossary On
Versions: 1 2 3 4 5 6 7 8 9 10 11 12 13 14 15
000
FTUS42 KKEY 202300
TAFMTH
TAF
KMTH 202320Z 2100/2124 11003KT P6SM SCT022 SCT080
     FM211200 12007KT P6SM SCT018 BKN030=

USA.gov is the U.S. government's official web portal to all federal, state and local government web resources and services.